This demonstration page uses our WeatherBlox Daily Observations layout. Learn more.

Left ArrowRight Arrow

Hourly Observations for June 25, 2022

Temp ( °F °C ) Dew Point ( °F °C ) Humidity (%) Winds ( mph kmh ) Pressure ( in mb ) Visibility ( mi km ) Precip ( " mm )
12:53 am 00:53 Clear 62 16.7 58 14.4 86 86 Calm 30.05 1018 10 16 0.00 0.00
1:53 am 01:53 Clear 61 16.1 59 15 93 93 Calm 30.05 1018 10 16 0.00 0.00
2:53 am 02:53 Clear 60 15.6 58 14.4 93 93 Calm 30.05 1018 10 16 0.00 0.00
3:53 am 03:53 Clear 59 15 58 14.4 96 96 Calm 30.05 1018 10 16 0.00 0.00
4:53 am 04:53 Clear 58 14.4 56 13.3 93 93 Calm 30.05 1018 10 16 0.00 0.00
5:53 am 05:53 Clear 58 14.4 56 13.3 93 93 Calm 30.07 1018 10 16 0.00 0.00
6:53 am 06:53 Sunny 59 15 58 14.4 96 96 Calm 30.08 1019 10 16 0.00 0.00
7:53 am 07:53 Sunny 67 19.4 61 16.1 81 81 Calm 30.07 1018 10 16 0.00 0.00
8:53 am 08:53 Sunny 73 22.8 62 16.7 69 69 Calm 30.09 1019 10 16 0.00 0.00
9:53 am 09:53 Sunny 78 25.6 61 16.1 56 56 Calm 30.08 1019 10 16 0.00 0.00
10:53 am 10:53 Sunny 82 27.8 57 13.9 42 42 E 6 9 30.07 1018 10 16 0.00 0.00
11:53 am 11:53 Sunny 83 28.3 59 15 44 44 Calm 30.08 1019 10 16 0.00 0.00
12:53 pm 12:53 Sunny 84 28.9 59 15 43 43 Calm 30.07 1018 10 16 0.00 0.00
1:53 pm 13:53 Sunny 88 31.1 59 15 38 38 VRB 3 6 30.05 1018 10 16 0.00 0.00
2:53 pm 14:53 Sunny 89 31.7 59 15 36 36 N 3 6 30.04 1017 10 16 0.00 0.00
3:53 pm 15:53 Sunny 85 29.4 61 16.1 45 45 VRB 6 9 30.06 1018 10 16 0.00 0.00
4:53 pm 16:53 Sunny 87 30.6 61 16.1 42 42 VRB 5 7 30.05 1018 10 16 0.00 0.00
5:53 pm 17:53 Sunny 85 29.4 65 18.3 51 51 VRB 3 6 30.02 1017 10 16 0.00 0.00
6:53 pm 18:53 Sunny 82 27.8 68 20 63 63 Calm 29.98 1015 10 16 0.00 0.00
7:53 pm 19:53 Sunny 79 26.1 65 18.3 62 62 Calm 29.98 1015 10 16 0.00 0.00
8:53 pm 20:53 Mostly Sunny 77 25 66 18.9 69 69 Calm 30.01 1016 10 16 0.00 0.00
9:53 pm 21:53 Partly Cloudy 75 23.9 67 19.4 76 76 Calm 30.01 1016 10 16 0.00 0.00
10:53 pm 22:53 Mostly Cloudy 74 23.3 66 18.9 76 76 Calm 30.02 1017 10 16 0.00 0.00
11:53 pm 23:53 Clear 73 22.8 67 19.4 81 81 Calm 30.02 1017 10 16 0.00 0.00

Powered by AerisWeather